This is the latest recevied weather packets stored in our database for station/object KJ4OVR-WX. If no packets are shown the sender has not sent any weather packets the latest 10 day(s).
| Time | Temp. | Humidity | Pressure | Rain* | Wind** | Luminosity | Snow |
|---|---|---|---|---|---|---|---|
| 1777749369 | 20° C | 41% | 1014.8 hPa | 0 mm | - | - | - |
| 1777749070 | 19.44° C | 41% | 1014.8 hPa | 0 mm | - | - | - |
| 1777748769 | 19.44° C | 41% | 1014.8 hPa | 0 mm | - | - | - |
| 1777748170 | 19.44° C | 41% | 1015 hPa | 0 mm | - | - | - |
| 1777747570 | 20° C | 40% | 1014.9 hPa | 0 mm | - | - | - |
| 1777746970 | 20° C | 42% | 1015 hPa | 0 mm | - | - | - |
| 1777746670 | 19.44° C | 40% | 1015 hPa | 0 mm | - | - | - |
| 1777746371 | 19.44° C | 41% | 1015 hPa | 0 mm | - | - | - |
| 1777746070 | 19.44° C | 41% | 1015 hPa | 0 mm | - | - | - |
| 1777745771 | 19.44° C | 41% | 1015.1 hPa | 0 mm | - | - | - |
| 1777745470 | 19.44° C | 40% | 1015.1 hPa | 0 mm | - | - | - |
| 1777745175 | 19.44° C | 40% | 1015 hPa | 0 mm | - | - | - |
| 1777744271 | 19.44° C | 40% | 1015.3 hPa | 0 mm | - | - | - |
| 1777743970 | 18.89° C | 41% | 1015.2 hPa | 0 mm | - | - | - |
| 1777742171 | 18.89° C | 43% | 1015.6 hPa | 0 mm | - | - | - |
| 1777740971 | 18.33° C | 43% | 1015.8 hPa | 0 mm | - | - | - |
| 1777740072 | 17.78° C | 43% | 1016.1 hPa | 0 mm | - | - | - |
| 1777739772 | 17.78° C | 43% | 1016.1 hPa | 0 mm | - | - | - |
| 1777739172 | 17.22° C | 46% | 1016.3 hPa | 0 mm | - | - | - |
| 1777738876 | 17.22° C | 47% | 1016.4 hPa | 0 mm | - | - | - |
| 1777738575 | 16.67° C | 47% | 1016.5 hPa | 0 mm | - | - | - |
| 1777738275 | 16.67° C | 47% | 1016.6 hPa | 0 mm | - | - | - |
| 1777737972 | 16.11° C | 47% | 1016.7 hPa | 0 mm | - | - | - |
| 1777737072 | 15.56° C | 48% | 1016.7 hPa | 0 mm | - | - | - |
| 1777736472 | 15.56° C | 48% | 1016.8 hPa | 0 mm | - | - | - |
* Rain latest hour (hover to see other rain measurements)
** Current wind speed in m/s (hover to see current wind gust speed)